Time,TemperatureF,DewpointF,PressureIn,WindDirection,WindDirectionDegrees,WindSpeedMPH,WindSpeedGustMPH,Humidity,HourlyPrecipIn,Conditions,Clouds,dailyrainin,SolarRadiationWatts/m^2,SoftwareType,DateUTC
2015-01-26 00:00:00,47.8,45.3,29.68,East,94,2.0,-999.0,91,0.00,,,0.00,0,WeatherHawk,2015-01-26 08:00:00,
2015-01-26 00:10:00,47.5,44.7,29.68,NNE,27,1.0,-999.0,90,0.00,,,0.00,1,WeatherHawk,2015-01-26 08:10:00,
2015-01-26 00:15:00,47.5,45.0,29.68,SE,132,1.0,-999.0,91,0.00,,,0.00,0,WeatherHawk,2015-01-26 08:15:00,
2015-01-26 00:20:00,47.5,45.0,29.68,WSW,244,1.0,-999.0,91,0.00,,,0.00,2,WeatherHawk,2015-01-26 08:20:00,
2015-01-26 00:25:00,47.3,44.8,29.67,NNE,16,1.0,-999.0,91,0.00,,,0.00,1,WeatherHawk,2015-01-26 08:25:00,
2015-01-26 00:35:00,47.3,44.8,29.67,NW,315,1.0,-999.0,91,0.00,,,0.00,4,WeatherHawk,2015-01-26 08:35:00,
2015-01-26 00:40:00,47.3,44.8,29.67,ESE,111,0.0,-999.0,91,0.00,,,0.00,0,WeatherHawk,2015-01-26 08:40:00,
2015-01-26 00:45:00,46.9,44.5,29.67,ESE,104,1.0,-999.0,91,0.00,,,0.00,0,WeatherHawk,2015-01-26 08:45:00,
2015-01-26 00:50:00,47.1,44.6,29.67,SE,140,1.0,-999.0,91,0.00,,,0.00,0,WeatherHawk,2015-01-26 08:50:00,
2015-01-26 00:55:00,46.9,44.5,29.67,SSW,210,2.0,-999.0,91,0.00,,,0.00,1,WeatherHawk,2015-01-26 08:55:00,
2015-01-26 01:00:00,46.9,44.5,29.67,South,181,2.0,-999.0,91,0.00,,,0.00,2,WeatherHawk,2015-01-26 09:00:00,
2015-01-26 01:05:00,47.1,44.6,29.67,South,187,1.0,-999.0,91,0.00,,,0.00,0,WeatherHawk,2015-01-26 09:05:00,
2015-01-26 01:10:00,47.1,44.6,29.67,SW,234,2.0,-999.0,91,0.00,,,0.00,3,WeatherHawk,2015-01-26 09:10:00,
2015-01-26 01:15:00,47.1,44.6,29.67,WNW,285,5.0,-999.0,91,0.00,,,0.00,0,WeatherHawk,2015-01-26 09:15:00,
2015-01-26 01:20:00,47.1,44.6,29.67,WSW,254,2.0,-999.0,91,0.00,,,0.00,0,WeatherHawk,2015-01-26 09:20:00,
2015-01-26 01:25:00,46.9,44.5,29.66,NW,304,4.0,-999.0,91,0.00,,,0.00,0,WeatherHawk,2015-01-26 09:25:00,
2015-01-26 01:30:00,46.9,44.5,29.66,NNW,335,4.0,-999.0,91,0.00,,,0.00,0,WeatherHawk,2015-01-26 09:30:00,
2015-01-26 01:35:00,46.9,44.5,29.66,North,352,3.0,-999.0,91,0.00,,,0.00,0,WeatherHawk,2015-01-26 09:35:00,
2015-01-26 01:40:00,46.9,44.5,29.66,East,97,1.0,-999.0,91,0.00,,,0.00,0,WeatherHawk,2015-01-26 09:40:00,
2015-01-26 01:45:00,47.1,44.6,29.66,SSE,164,1.0,-999.0,91,0.00,,,0.00,0,WeatherHawk,2015-01-26 09:45:00,
2015-01-26 01:50:00,47.1,44.6,29.66,SSE,148,2.0,-999.0,91,0.00,,,0.00,0,WeatherHawk,2015-01-26 09:50:00,
2015-01-26 01:55:00,47.1,44.6,29.66,WNW,290,1.0,-999.0,91,0.00,,,0.00,0,WeatherHawk,2015-01-26 09:55:00,
2015-01-26 02:00:00,46.9,44.5,29.66,NE,54,1.0,-999.0,91,0.00,,,0.00,0,WeatherHawk,2015-01-26 10:00:00,
2015-01-26 02:05:00,46.8,44.3,29.65,ENE,63,3.0,-999.0,91,0.00,,,0.00,0,WeatherHawk,2015-01-26 10:05:00,
2015-01-26 02:10:00,46.9,44.5,29.65,ESE,120,3.0,-999.0,91,0.00,,,0.00,0,WeatherHawk,2015-01-26 10:10:00,
2015-01-26 02:15:00,46.9,44.5,29.65,South,185,3.0,-999.0,91,0.00,,,0.00,0,WeatherHawk,2015-01-26 10:15:00,
2015-01-26 02:20:00,46.9,44.5,29.66,SSW,213,2.0,-999.0,91,0.00,,,0.00,1,WeatherHawk,2015-01-26 10:20:00,
2015-01-26 02:25:00,46.8,44.3,29.66,NW,317,3.0,-999.0,91,0.00,,,0.00,0,WeatherHawk,2015-01-26 10:25:00,
2015-01-26 02:35:00,46.8,44.3,29.66,WSW,250,2.0,-999.0,91,0.00,,,0.00,3,WeatherHawk,2015-01-26 10:35:00,
2015-01-26 02:39:00,46.8,44.3,29.66,SSW,194,1.0,-999.0,91,0.00,,,0.00,0,WeatherHawk,2015-01-26 10:39:00,
2015-01-26 02:45:00,46.9,44.5,29.66,SSE,152,1.0,-999.0,91,0.00,,,0.00,0,WeatherHawk,2015-01-26 10:45:00,
2015-01-26 02:50:00,47.1,44.6,29.65,SSW,209,0.0,-999.0,91,0.00,,,0.00,4,WeatherHawk,2015-01-26 10:50:00,
2015-01-26 02:55:00,46.8,44.3,29.65,NNW,331,1.0,-999.0,91,0.00,,,0.00,0,WeatherHawk,2015-01-26 10:55:00,
2015-01-26 03:00:00,46.8,44.3,29.65,East,82,1.0,-999.0,91,0.00,,,0.00,0,WeatherHawk,2015-01-26 11:00:00,
2015-01-26 03:05:00,46.8,44.3,29.65,ESE,112,1.0,-999.0,91,0.00,,,0.00,0,WeatherHawk,2015-01-26 11:05:00,
2015-01-26 03:10:00,46.6,44.1,29.65,SE,143,1.0,-999.0,91,0.00,,,0.00,0,WeatherHawk,2015-01-26 11:10:00,
2015-01-26 03:15:00,46.6,44.1,29.65,SSE,155,1.0,-999.0,91,0.00,,,0.00,0,WeatherHawk,2015-01-26 11:15:00,
2015-01-26 03:20:00,46.6,44.1,29.65,South,186,2.0,-999.0,91,0.00,,,0.00,0,WeatherHawk,2015-01-26 11:20:00,
2015-01-26 03:25:00,46.4,43.9,29.65,South,180,2.0,-999.0,91,0.00,,,0.00,1,WeatherHawk,2015-01-26 11:25:00,
2015-01-26 03:30:00,46.6,44.1,29.65,SW,219,2.0,-999.0,91,0.00,,,0.00,3,WeatherHawk,2015-01-26 11:30:00,
2015-01-26 03:35:00,46.6,44.1,29.65,SW,226,2.0,-999.0,91,0.00,,,0.00,0,WeatherHawk,2015-01-26 11:35:00,
2015-01-26 03:40:00,46.6,44.1,29.65,West,279,3.0,-999.0,91,0.00,,,0.00,1,WeatherHawk,2015-01-26 11:40:00,
2015-01-26 03:45:00,46.6,44.1,29.65,West,268,3.0,-999.0,91,0.00,,,0.00,0,WeatherHawk,2015-01-26 11:45:00,
2015-01-26 03:50:00,46.4,43.9,29.65,SW,217,5.0,-999.0,91,0.00,,,0.00,0,WeatherHawk,2015-01-26 11:50:00,
2015-01-26 03:55:00,46.4,43.9,29.65,SW,218,12.0,-999.0,91,0.00,,,0.00,0,WeatherHawk,2015-01-26 11:55:00,
2015-01-26 04:00:00,46.4,43.9,29.65,SW,221,12.0,-999.0,91,0.00,,,0.00,0,WeatherHawk,2015-01-26 12:00:00,
2015-01-26 04:05:00,46.4,43.9,29.65,SSW,197,4.0,-999.0,91,0.00,,,0.00,1,WeatherHawk,2015-01-26 12:05:00,
2015-01-26 04:10:00,46.6,44.1,29.66,SW,219,15.0,-999.0,91,0.00,,,0.00,2,WeatherHawk,2015-01-26 12:10:00,
2015-01-26 04:15:00,46.6,44.1,29.66,SW,229,5.0,-999.0,91,0.00,,,0.00,0,WeatherHawk,2015-01-26 12:15:00,
2015-01-26 04:20:00,46.4,43.9,29.66,SW,222,13.0,-999.0,91,0.00,,,0.00,0,WeatherHawk,2015-01-26 12:20:00,
2015-01-26 04:25:00,46.0,43.6,29.66,WSW,239,9.0,-999.0,91,0.00,,,0.00,0,WeatherHawk,2015-01-26 12:25:00,
2015-01-26 04:30:00,46.2,43.7,29.66,WSW,245,5.0,-999.0,91,0.00,,,0.00,0,WeatherHawk,2015-01-26 12:30:00,
2015-01-26 04:35:00,46.2,43.7,29.66,SW,228,10.0,-999.0,91,0.00,,,0.00,5,WeatherHawk,2015-01-26 12:35:00,
2015-01-26 04:40:00,46.0,43.6,29.66,SSW,196,7.0,-999.0,91,0.00,,,0.00,0,WeatherHawk,2015-01-26 12:40:00,
2015-01-26 04:45:00,46.0,43.6,29.66,SSW,206,5.0,-999.0,91,0.00,,,0.00,1,WeatherHawk,2015-01-26 12:45:00,
2015-01-26 04:50:00,46.2,43.7,29.65,SSE,166,4.0,-999.0,91,0.00,,,0.00,0,WeatherHawk,2015-01-26 12:50:00,
2015-01-26 04:55:00,46.2,43.7,29.65,SSW,203,6.0,-999.0,91,0.00,,,0.00,1,WeatherHawk,2015-01-26 12:55:00,
2015-01-26 05:00:00,46.4,44.2,29.65,South,185,3.0,-999.0,92,0.00,,,0.00,0,WeatherHawk,2015-01-26 13:00:00,
2015-01-26 05:05:00,46.2,43.7,29.65,South,170,5.0,-999.0,91,0.00,,,0.00,0,WeatherHawk,2015-01-26 13:05:00,
2015-01-26 05:10:00,46.4,44.2,29.65,SSE,162,1.0,-999.0,92,0.00,,,0.00,0,WeatherHawk,2015-01-26 13:10:00,
2015-01-26 05:15:00,46.4,44.2,29.65,South,170,5.0,-999.0,92,0.00,,,0.00,0,WeatherHawk,2015-01-26 13:15:00,
2015-01-26 05:20:00,46.4,44.2,29.66,SSE,152,4.0,-999.0,92,0.00,,,0.00,2,WeatherHawk,2015-01-26 13:20:00,
2015-01-26 05:25:00,46.2,44.0,29.66,SE,132,4.0,-999.0,92,0.00,,,0.00,0,WeatherHawk,2015-01-26 13:25:00,
2015-01-26 05:30:00,46.4,44.2,29.66,SSE,158,6.0,-999.0,92,0.00,,,0.00,0,WeatherHawk,2015-01-26 13:30:00,
2015-01-26 05:35:00,46.4,44.2,29.66,SSW,208,3.0,-999.0,92,0.00,,,0.00,0,WeatherHawk,2015-01-26 13:35:00,
2015-01-26 05:40:00,46.6,44.4,29.67,South,180,5.0,-999.0,92,0.00,,,0.00,0,WeatherHawk,2015-01-26 13:40:00,
2015-01-26 05:45:00,46.6,44.4,29.67,SSW,193,9.0,-999.0,92,0.00,,,0.00,1,WeatherHawk,2015-01-26 13:45:00,
2015-01-26 05:50:00,46.6,44.4,29.67,SSW,200,8.0,-999.0,92,0.00,,,0.00,0,WeatherHawk,2015-01-26 13:50:00,
2015-01-26 05:55:00,46.6,44.4,29.68,SSW,192,6.0,-999.0,92,0.00,,,0.00,1,WeatherHawk,2015-01-26 13:55:00,
2015-01-26 06:00:00,46.4,44.2,29.67,South,170,11.0,-999.0,92,0.00,,,0.00,3,WeatherHawk,2015-01-26 14:00:00,
2015-01-26 06:05:00,46.2,44.0,29.67,SE,142,4.0,-999.0,92,0.00,,,0.00,1,WeatherHawk,2015-01-26 14:05:00,
2015-01-26 06:10:00,46.4,44.2,29.66,SE,137,4.0,-999.0,92,0.00,,,0.00,0,WeatherHawk,2015-01-26 14:10:00,
2015-01-26 06:15:00,46.4,44.2,29.66,ENE,73,5.0,-999.0,92,0.00,,,0.00,1,WeatherHawk,2015-01-26 14:15:00,
2015-01-26 06:20:00,46.4,44.2,29.65,ESE,113,2.0,-999.0,92,0.00,,,0.00,0,WeatherHawk,2015-01-26 14:20:00,
2015-01-26 06:25:00,46.4,44.2,29.65,East,85,2.0,-999.0,92,0.00,,,0.00,1,WeatherHawk,2015-01-26 14:25:00,
2015-01-26 06:30:00,46.0,43.8,29.64,NE,50,5.0,-999.0,92,0.00,,,0.00,5,WeatherHawk,2015-01-26 14:30:00,
2015-01-26 06:35:00,46.0,43.8,29.65,NNE,30,2.0,-999.0,92,0.00,,,0.00,1,WeatherHawk,2015-01-26 14:35:00,
2015-01-26 06:40:00,46.2,44.0,29.67,SW,232,4.0,-999.0,92,0.00,,,0.00,3,WeatherHawk,2015-01-26 14:40:00,
2015-01-26 06:45:00,45.7,43.5,29.68,SW,229,9.0,-999.0,92,0.00,,,0.00,0,WeatherHawk,2015-01-26 14:45:00,
2015-01-26 06:50:00,45.3,42.8,29.67,SSW,205,9.0,-999.0,91,0.00,,,0.00,7,WeatherHawk,2015-01-26 14:50:00,
2015-01-26 06:55:00,45.3,42.8,29.67,South,190,2.0,-999.0,91,0.00,,,0.00,0,WeatherHawk,2015-01-26 14:55:00,
2015-01-26 07:00:00,45.5,43.0,29.67,SW,224,2.0,-999.0,91,0.00,,,0.00,1,WeatherHawk,2015-01-26 15:00:00,
2015-01-26 07:05:00,45.7,43.2,29.67,SW,220,5.0,-999.0,91,0.00,,,0.00,0,WeatherHawk,2015-01-26 15:05:00,
2015-01-26 07:10:00,45.9,43.4,29.67,West,270,3.0,-999.0,91,0.00,,,0.00,0,WeatherHawk,2015-01-26 15:10:00,
2015-01-26 07:15:00,45.9,43.4,29.67,WNW,292,5.0,-999.0,91,0.00,,,0.00,0,WeatherHawk,2015-01-26 15:15:00,
2015-01-26 07:20:00,46.0,43.6,29.67,SW,222,2.0,-999.0,91,0.00,,,0.00,0,WeatherHawk,2015-01-26 15:20:00,
2015-01-26 07:25:00,46.0,43.6,29.67,West,263,4.0,-999.0,91,0.00,,,0.00,4,WeatherHawk,2015-01-26 15:25:00,
2015-01-26 07:30:00,46.2,43.7,29.67,WSW,237,4.0,-999.0,91,0.00,,,0.00,0,WeatherHawk,2015-01-26 15:30:00,
2015-01-26 07:35:00,46.0,43.6,29.68,WSW,245,4.0,-999.0,91,0.00,,,0.00,0,WeatherHawk,2015-01-26 15:35:00,
2015-01-26 07:40:00,46.0,43.6,29.67,WSW,253,4.0,-999.0,91,0.00,,,0.00,7,WeatherHawk,2015-01-26 15:40:00,
2015-01-26 07:45:00,45.9,43.4,29.67,WSW,242,3.0,-999.0,91,0.00,,,0.00,2,WeatherHawk,2015-01-26 15:45:00,
2015-01-26 07:50:00,45.9,43.4,29.67,WNW,286,1.0,-999.0,91,0.00,,,0.00,4,WeatherHawk,2015-01-26 15:50:00,
2015-01-26 07:55:00,45.9,43.4,29.67,West,266,2.0,-999.0,91,0.00,,,0.00,15,WeatherHawk,2015-01-26 15:55:00,
2015-01-26 08:00:00,46.0,43.6,29.67,NW,312,3.0,-999.0,91,0.00,,,0.00,16,WeatherHawk,2015-01-26 16:00:00,
2015-01-26 08:05:00,46.2,43.7,29.68,West,276,4.0,-999.0,91,0.00,,,0.00,21,WeatherHawk,2015-01-26 16:05:00,
2015-01-26 08:10:00,46.4,43.9,29.68,West,271,3.0,-999.0,91,0.00,,,0.00,18,WeatherHawk,2015-01-26 16:10:00,
2015-01-26 08:15:00,46.4,43.9,29.68,SW,235,4.0,-999.0,91,0.00,,,0.00,26,WeatherHawk,2015-01-26 16:15:00,
2015-01-26 08:20:00,46.2,43.7,29.67,SSE,156,1.0,-999.0,91,0.00,,,0.00,40,WeatherHawk,2015-01-26 16:20:00,
2015-01-26 08:25:00,46.8,44.3,29.67,SSW,200,0.0,-999.0,91,0.00,,,0.00,27,WeatherHawk,2015-01-26 16:25:00,
2015-01-26 08:30:00,46.6,44.1,29.67,South,175,2.0,-999.0,91,0.00,,,0.00,36,WeatherHawk,2015-01-26 16:30:00,
2015-01-26 08:35:00,46.6,44.1,29.67,South,179,1.0,-999.0,91,0.00,,,0.00,53,WeatherHawk,2015-01-26 16:35:00,
2015-01-26 08:40:00,47.1,44.6,29.67,SW,224,0.0,-999.0,91,0.00,,,0.00,46,WeatherHawk,2015-01-26 16:40:00,
2015-01-26 08:45:00,47.5,45.0,29.67,South,180,4.0,-999.0,91,0.00,,,0.00,47,WeatherHawk,2015-01-26 16:45:00,
2015-01-26 08:50:00,47.3,44.5,29.67,SSW,210,4.0,-999.0,90,0.00,,,0.00,56,WeatherHawk,2015-01-26 16:50:00,
2015-01-26 08:55:00,47.8,44.8,29.67,SSW,211,2.0,-999.0,89,0.00,,,0.00,70,WeatherHawk,2015-01-26 16:55:00,
2015-01-26 09:00:00,48.0,44.3,29.67,SW,215,3.0,-999.0,87,0.00,,,0.00,65,WeatherHawk,2015-01-26 17:00:00,
2015-01-26 09:05:00,48.2,43.6,29.68,SSW,206,6.0,-999.0,84,0.00,,,0.00,68,WeatherHawk,2015-01-26 17:05:00,
2015-01-26 09:10:00,48.0,43.1,29.68,SSW,193,4.0,-999.0,83,0.00,,,0.00,84,WeatherHawk,2015-01-26 17:10:00,
2015-01-26 09:15:00,48.0,42.8,29.68,SSW,194,7.0,-999.0,82,0.00,,,0.00,70,WeatherHawk,2015-01-26 17:15:00,
2015-01-26 09:20:00,48.2,43.0,29.68,South,186,6.0,-999.0,82,0.00,,,0.00,80,WeatherHawk,2015-01-26 17:20:00,
2015-01-26 09:25:00,48.0,42.8,29.68,SW,218,7.0,-999.0,82,0.00,,,0.00,76,WeatherHawk,2015-01-26 17:25:00,
2015-01-26 09:30:00,48.0,43.1,29.68,SW,233,2.0,-999.0,83,0.00,,,0.00,81,WeatherHawk,2015-01-26 17:30:00,
2015-01-26 09:35:00,48.0,42.8,29.68,WSW,238,4.0,-999.0,82,0.00,,,0.00,89,WeatherHawk,2015-01-26 17:35:00,
2015-01-26 09:40:00,48.2,43.0,29.68,SW,216,5.0,-999.0,82,0.00,,,0.00,88,WeatherHawk,2015-01-26 17:40:00,
2015-01-26 09:45:00,48.6,43.0,29.67,SW,221,2.0,-999.0,81,0.00,,,0.00,90,WeatherHawk,2015-01-26 17:45:00,
2015-01-26 09:50:00,49.3,43.4,29.68,SSW,210,4.0,-999.0,80,0.00,,,0.00,92,WeatherHawk,2015-01-26 17:50:00,
2015-01-26 09:55:00,49.3,43.0,29.68,SSW,203,5.0,-999.0,79,0.00,,,0.00,92,WeatherHawk,2015-01-26 17:55:00,
2015-01-26 10:00:00,49.3,43.0,29.68,SW,220,4.0,-999.0,79,0.00,,,0.00,98,WeatherHawk,2015-01-26 18:00:00,
2015-01-26 10:05:00,49.3,43.4,29.68,SSW,208,4.0,-999.0,80,0.00,,,0.00,109,WeatherHawk,2015-01-26 18:05:00,
2015-01-26 10:10:00,49.3,43.4,29.68,SSW,210,4.0,-999.0,80,0.00,,,0.00,113,WeatherHawk,2015-01-26 18:10:00,
2015-01-26 10:20:00,49.8,43.6,29.68,SW,224,2.0,-999.0,79,0.00,,,0.00,110,WeatherHawk,2015-01-26 18:20:00,
2015-01-26 10:25:00,50.0,43.7,29.68,WSW,253,5.0,-999.0,79,0.00,,,0.00,127,WeatherHawk,2015-01-26 18:25:00,
2015-01-26 10:30:00,50.2,43.9,29.68,SW,217,4.0,-999.0,79,0.00,,,0.00,131,WeatherHawk,2015-01-26 18:30:00,
2015-01-26 10:35:00,50.4,43.4,29.69,South,185,3.0,-999.0,77,0.00,,,0.00,131,WeatherHawk,2015-01-26 18:35:00,
2015-01-26 10:40:00,51.1,43.8,29.68,SE,145,4.0,-999.0,76,0.00,,,0.00,132,WeatherHawk,2015-01-26 18:40:00,
2015-01-26 10:45:00,52.0,44.0,29.68,SW,216,2.0,-999.0,74,0.00,,,0.00,137,WeatherHawk,2015-01-26 18:45:00,
2015-01-26 10:50:00,52.2,43.8,29.69,SSW,211,3.0,-999.0,73,0.00,,,0.00,136,WeatherHawk,2015-01-26 18:50:00,
2015-01-26 10:55:00,53.1,43.5,29.69,SSW,208,2.0,-999.0,70,0.00,,,0.00,141,WeatherHawk,2015-01-26 18:55:00,
2015-01-26 11:00:00,54.3,43.6,29.68,SW,236,2.0,-999.0,67,0.00,,,0.00,151,WeatherHawk,2015-01-26 19:00:00,
2015-01-26 11:05:00,55.6,43.6,29.69,SSW,194,3.0,-999.0,64,0.00,,,0.00,155,WeatherHawk,2015-01-26 19:05:00,
2015-01-26 11:10:00,55.9,43.1,29.68,SSE,167,4.0,-999.0,62,0.00,,,0.00,161,WeatherHawk,2015-01-26 19:10:00,
2015-01-26 11:15:00,56.5,42.8,29.68,SSW,195,4.0,-999.0,60,0.00,,,0.00,163,WeatherHawk,2015-01-26 19:15:00,
2015-01-26 11:20:00,57.2,43.0,29.68,SSW,201,4.0,-999.0,59,0.00,,,0.00,165,WeatherHawk,2015-01-26 19:20:00,
2015-01-26 11:25:00,57.6,42.9,29.68,SSW,192,8.0,-999.0,58,0.00,,,0.00,161,WeatherHawk,2015-01-26 19:25:00,
2015-01-26 11:30:00,57.6,43.3,29.68,South,189,6.0,-999.0,59,0.00,,,0.00,170,WeatherHawk,2015-01-26 19:30:00,
2015-01-26 11:35:00,57.9,43.7,29.68,SSW,213,5.0,-999.0,59,0.00,,,0.00,171,WeatherHawk,2015-01-26 19:35:00,
2015-01-26 11:40:00,57.9,43.2,29.68,South,185,7.0,-999.0,58,0.00,,,0.00,178,WeatherHawk,2015-01-26 19:40:00,
2015-01-26 11:45:00,58.1,43.4,29.67,SSE,167,3.0,-999.0,58,0.00,,,0.00,176,WeatherHawk,2015-01-26 19:45:00,
2015-01-26 11:50:00,59.0,43.8,29.68,SSE,148,5.0,-999.0,57,0.00,,,0.00,180,WeatherHawk,2015-01-26 19:50:00,
2015-01-26 11:55:00,59.4,43.7,29.67,SSE,151,4.0,-999.0,56,0.00,,,0.00,173,WeatherHawk,2015-01-26 19:55:00,
2015-01-26 12:00:00,58.8,43.6,29.67,South,186,6.0,-999.0,57,0.00,,,0.00,185,WeatherHawk,2015-01-26 20:00:00,
2015-01-26 12:05:00,58.6,43.5,29.67,SSW,195,7.0,-999.0,57,0.00,,,0.00,180,WeatherHawk,2015-01-26 20:05:00,
2015-01-26 12:10:00,58.8,43.2,29.67,SSE,153,7.0,-999.0,56,0.00,,,0.00,182,WeatherHawk,2015-01-26 20:10:00,
2015-01-26 12:15:00,59.2,44.0,29.67,SE,125,2.0,-999.0,57,0.00,,,0.00,182,WeatherHawk,2015-01-26 20:15:00,
2015-01-26 12:20:00,59.5,43.8,29.67,South,170,2.0,-999.0,56,0.00,,,0.00,194,WeatherHawk,2015-01-26 20:20:00,
2015-01-26 12:25:00,59.7,43.5,29.67,South,175,4.0,-999.0,55,0.00,,,0.00,194,WeatherHawk,2015-01-26 20:25:00,
2015-01-26 12:30:00,60.3,43.1,29.66,SSE,149,8.0,-999.0,53,0.00,,,0.00,190,WeatherHawk,2015-01-26 20:30:00,
2015-01-26 12:35:00,60.4,44.2,29.66,SSE,149,3.0,-999.0,55,0.00,,,0.00,185,WeatherHawk,2015-01-26 20:35:00,
2015-01-26 12:40:00,60.6,43.9,29.66,SE,144,3.0,-999.0,54,0.00,,,0.00,190,WeatherHawk,2015-01-26 20:40:00,
2015-01-26 12:45:00,61.2,43.9,29.66,SSW,202,3.0,-999.0,53,0.00,,,0.00,193,WeatherHawk,2015-01-26 20:45:00,
2015-01-26 12:50:00,60.3,43.5,29.66,South,186,9.0,-999.0,54,0.00,,,0.00,185,WeatherHawk,2015-01-26 20:50:00,
2015-01-26 13:00:00,60.4,44.2,29.66,SSE,168,6.0,-999.0,55,0.00,,,0.00,183,WeatherHawk,2015-01-26 21:00:00,
2015-01-26 13:05:00,60.4,44.2,29.66,SE,132,7.0,-999.0,55,0.00,,,0.00,184,WeatherHawk,2015-01-26 21:05:00,
2015-01-26 13:10:00,61.3,44.5,29.66,SSE,165,6.0,-999.0,54,0.00,,,0.00,178,WeatherHawk,2015-01-26 21:10:00,
2015-01-26 13:15:00,61.0,44.2,29.66,SSW,198,6.0,-999.0,54,0.00,,,0.00,180,WeatherHawk,2015-01-26 21:15:00,
2015-01-26 13:20:00,60.8,44.0,29.66,SSW,198,6.0,-999.0,54,0.00,,,0.00,178,WeatherHawk,2015-01-26 21:20:00,
2015-01-26 13:25:00,60.6,43.9,29.65,SSE,148,6.0,-999.0,54,0.00,,,0.00,171,WeatherHawk,2015-01-26 21:25:00,
2015-01-26 13:30:00,60.6,43.9,29.65,SW,223,5.0,-999.0,54,0.00,,,0.00,174,WeatherHawk,2015-01-26 21:30:00,
2015-01-26 13:35:00,60.8,44.0,29.65,South,180,7.0,-999.0,54,0.00,,,0.00,173,WeatherHawk,2015-01-26 21:35:00,
2015-01-26 13:40:00,61.0,44.2,29.65,South,191,6.0,-999.0,54,0.00,,,0.00,173,WeatherHawk,2015-01-26 21:40:00,
2015-01-26 13:45:00,60.4,43.7,29.65,South,190,9.0,-999.0,54,0.00,,,0.00,163,WeatherHawk,2015-01-26 21:45:00,
2015-01-26 13:50:00,60.8,44.0,29.65,SSW,203,8.0,-999.0,54,0.00,,,0.00,165,WeatherHawk,2015-01-26 21:50:00,
2015-01-26 13:55:00,61.2,44.4,29.65,SW,224,4.0,-999.0,54,0.00,,,0.00,163,WeatherHawk,2015-01-26 21:55:00,
2015-01-26 14:00:00,61.3,44.1,29.65,South,189,7.0,-999.0,53,0.00,,,0.00,165,WeatherHawk,2015-01-26 22:00:00,
2015-01-26 14:05:00,61.0,43.7,29.64,SSW,198,8.0,-999.0,53,0.00,,,0.00,146,WeatherHawk,2015-01-26 22:05:00,
2015-01-26 14:10:00,61.2,44.4,29.64,SSE,167,4.0,-999.0,54,0.00,,,0.00,152,WeatherHawk,2015-01-26 22:10:00,
2015-01-26 14:15:00,61.5,44.2,29.64,South,186,5.0,-999.0,53,0.00,,,0.00,143,WeatherHawk,2015-01-26 22:15:00,
2015-01-26 14:20:00,62.2,44.4,29.64,SSW,207,3.0,-999.0,52,0.00,,,0.00,136,WeatherHawk,2015-01-26 22:20:00,
2015-01-26 14:25:00,61.5,43.7,29.64,South,186,6.0,-999.0,52,0.00,,,0.00,139,WeatherHawk,2015-01-26 22:25:00,
2015-01-26 14:30:00,61.9,44.1,29.64,SSW,212,4.0,-999.0,52,0.00,,,0.00,137,WeatherHawk,2015-01-26 22:30:00,
2015-01-26 14:35:00,62.4,44.0,29.64,South,180,2.0,-999.0,51,0.00,,,0.00,132,WeatherHawk,2015-01-26 22:35:00,
2015-01-26 14:40:00,63.0,44.0,29.64,South,171,7.0,-999.0,50,0.00,,,0.00,123,WeatherHawk,2015-01-26 22:40:00,
2015-01-26 14:45:00,62.6,43.7,29.64,South,170,4.0,-999.0,50,0.00,,,0.00,123,WeatherHawk,2015-01-26 22:45:00,
2015-01-26 14:50:00,62.1,43.7,29.64,South,174,6.0,-999.0,51,0.00,,,0.00,114,WeatherHawk,2015-01-26 22:50:00,
2015-01-26 14:55:00,62.8,43.9,29.64,South,191,5.0,-999.0,50,0.00,,,0.00,118,WeatherHawk,2015-01-26 22:55:00,
2015-01-26 15:00:00,63.0,44.0,29.64,SE,140,3.0,-999.0,50,0.00,,,0.00,106,WeatherHawk,2015-01-26 23:00:00,
2015-01-26 15:05:00,62.8,42.8,29.64,SSW,193,9.0,-999.0,48,0.00,,,0.00,100,WeatherHawk,2015-01-26 23:05:00,
2015-01-26 15:10:00,63.0,43.0,29.64,South,188,7.0,-999.0,48,0.00,,,0.00,103,WeatherHawk,2015-01-26 23:10:00,
2015-01-26 15:15:00,63.0,43.0,29.64,SE,140,4.0,-999.0,48,0.00,,,0.00,90,WeatherHawk,2015-01-26 23:15:00,
2015-01-26 15:20:00,63.0,42.4,29.64,South,184,3.0,-999.0,47,0.00,,,0.00,81,WeatherHawk,2015-01-26 23:20:00,
2015-01-26 15:25:00,63.0,43.0,29.64,SSE,150,5.0,-999.0,48,0.00,,,0.00,90,WeatherHawk,2015-01-26 23:25:00,
2015-01-26 15:30:00,62.8,42.2,29.64,South,191,6.0,-999.0,47,0.00,,,0.00,75,WeatherHawk,2015-01-26 23:30:00,
2015-01-26 15:35:00,62.8,42.8,29.64,SSE,150,4.0,-999.0,48,0.00,,,0.00,71,WeatherHawk,2015-01-26 23:35:00,
2015-01-26 15:40:00,63.1,43.1,29.63,South,187,5.0,-999.0,48,0.00,,,0.00,66,WeatherHawk,2015-01-26 23:40:00,
2015-01-26 15:45:00,62.8,42.8,29.64,SE,133,3.0,-999.0,48,0.00,,,0.00,66,WeatherHawk,2015-01-26 23:45:00,
2015-01-26 15:50:00,62.8,43.3,29.63,South,170,3.0,-999.0,49,0.00,,,0.00,59,WeatherHawk,2015-01-26 23:50:00,
2015-01-26 15:55:00,62.6,43.2,29.63,SSW,197,4.0,-999.0,49,0.00,,,0.00,52,WeatherHawk,2015-01-26 23:55:00,
2015-01-26 16:00:00,62.6,43.2,29.63,SE,126,5.0,-999.0,49,0.00,,,0.00,52,WeatherHawk,2015-01-27 00:00:00,
2015-01-26 16:05:00,62.2,43.4,29.63,SSE,153,5.0,-999.0,50,0.00,,,0.00,43,WeatherHawk,2015-01-27 00:05:00,
2015-01-26 16:10:00,62.1,43.2,29.63,SE,131,3.0,-999.0,50,0.00,,,0.00,27,WeatherHawk,2015-01-27 00:10:00,
2015-01-26 16:15:00,61.9,43.0,29.63,South,176,5.0,-999.0,50,0.00,,,0.00,14,WeatherHawk,2015-01-27 00:15:00,
2015-01-26 16:20:00,61.5,43.2,29.63,SSW,197,10.0,-999.0,51,0.00,,,0.00,11,WeatherHawk,2015-01-27 00:20:00,
2015-01-26 16:25:00,61.2,43.4,29.63,SSE,163,4.0,-999.0,52,0.00,,,0.00,10,WeatherHawk,2015-01-27 00:25:00,
2015-01-26 16:30:00,61.2,43.9,29.63,SSE,151,2.0,-999.0,53,0.00,,,0.00,14,WeatherHawk,2015-01-27 00:30:00,
2015-01-26 16:35:00,61.0,43.7,29.63,SSW,192,4.0,-999.0,53,0.00,,,0.00,10,WeatherHawk,2015-01-27 00:35:00,
2015-01-26 16:40:00,60.8,44.0,29.63,SSW,192,8.0,-999.0,54,0.00,,,0.00,11,WeatherHawk,2015-01-27 00:40:00,
2015-01-26 16:45:00,60.8,44.0,29.63,SSW,210,5.0,-999.0,54,0.00,,,0.00,15,WeatherHawk,2015-01-27 00:45:00,
2015-01-26 16:50:00,60.6,44.4,29.63,South,179,7.0,-999.0,55,0.00,,,0.00,13,WeatherHawk,2015-01-27 00:50:00,
2015-01-26 16:55:00,60.4,44.2,29.64,South,178,3.0,-999.0,55,0.00,,,0.00,0,WeatherHawk,2015-01-27 00:55:00,
2015-01-26 17:00:00,60.3,44.0,29.64,SSW,200,6.0,-999.0,55,0.00,,,0.00,4,WeatherHawk,2015-01-27 01:00:00,
2015-01-26 17:05:00,60.1,44.3,29.64,SSW,206,6.0,-999.0,56,0.00,,,0.00,2,WeatherHawk,2015-01-27 01:05:00,
2015-01-26 17:10:00,59.9,44.2,29.64,SSW,198,6.0,-999.0,56,0.00,,,0.00,0,WeatherHawk,2015-01-27 01:10:00,
2015-01-26 17:15:00,59.9,44.2,29.64,South,191,4.0,-999.0,56,0.00,,,0.00,0,WeatherHawk,2015-01-27 01:15:00,
2015-01-26 17:20:00,59.7,44.5,29.64,SSW,193,10.0,-999.0,57,0.00,,,0.00,1,WeatherHawk,2015-01-27 01:20:00,
2015-01-26 17:25:00,59.5,44.3,29.64,SSW,192,6.0,-999.0,57,0.00,,,0.00,0,WeatherHawk,2015-01-27 01:25:00,
2015-01-26 17:30:00,59.5,44.3,29.64,SSW,192,6.0,-999.0,57,0.00,,,0.00,4,WeatherHawk,2015-01-27 01:30:00,
2015-01-26 17:35:00,59.4,44.1,29.64,SSW,206,7.0,-999.0,57,0.00,,,0.00,0,WeatherHawk,2015-01-27 01:35:00,
2015-01-26 17:40:00,59.2,44.4,29.65,South,169,3.0,-999.0,58,0.00,,,0.00,4,WeatherHawk,2015-01-27 01:40:00,
2015-01-26 17:45:00,59.0,44.2,29.65,SSW,194,4.0,-999.0,58,0.00,,,0.00,0,WeatherHawk,2015-01-27 01:45:00,
2015-01-26 17:50:00,59.0,44.2,29.65,South,174,5.0,-999.0,58,0.00,,,0.00,1,WeatherHawk,2015-01-27 01:50:00,
2015-01-26 17:55:00,58.8,44.5,29.65,South,182,7.0,-999.0,59,0.00,,,0.00,2,WeatherHawk,2015-01-27 01:55:00,
2015-01-26 18:00:00,58.8,44.5,29.65,SE,134,2.0,-999.0,59,0.00,,,0.00,0,WeatherHawk,2015-01-27 02:00:00,
2015-01-26 18:05:00,58.6,44.4,29.65,SSW,194,9.0,-999.0,59,0.00,,,0.00,0,WeatherHawk,2015-01-27 02:05:00,
2015-01-26 18:10:00,58.5,44.6,29.65,SSW,198,5.0,-999.0,60,0.00,,,0.00,1,WeatherHawk,2015-01-27 02:10:00,
2015-01-26 18:15:00,58.3,44.5,29.65,SSW,198,7.0,-999.0,60,0.00,,,0.00,0,WeatherHawk,2015-01-27 02:15:00,
2015-01-26 18:20:00,58.1,44.7,29.66,South,182,4.0,-999.0,61,0.00,,,0.00,0,WeatherHawk,2015-01-27 02:20:00,
2015-01-26 18:25:00,57.9,44.6,29.66,SSW,194,6.0,-999.0,61,0.00,,,0.00,0,WeatherHawk,2015-01-27 02:25:00,
2015-01-26 18:30:00,57.9,45.0,29.66,South,178,6.0,-999.0,62,0.00,,,0.00,1,WeatherHawk,2015-01-27 02:30:00,
2015-01-26 18:35:00,57.7,44.8,29.66,SW,221,5.0,-999.0,62,0.00,,,0.00,3,WeatherHawk,2015-01-27 02:35:00,
2015-01-26 18:40:00,57.4,44.9,29.66,SW,220,6.0,-999.0,63,0.00,,,0.00,0,WeatherHawk,2015-01-27 02:40:00,
2015-01-26 18:45:00,57.2,45.1,29.67,SW,222,5.0,-999.0,64,0.00,,,0.00,1,WeatherHawk,2015-01-27 02:45:00,
2015-01-26 18:50:00,56.8,45.2,29.66,SSW,200,6.0,-999.0,65,0.00,,,0.00,1,WeatherHawk,2015-01-27 02:50:00,
2015-01-26 18:55:00,56.7,45.0,29.67,SSW,199,4.0,-999.0,65,0.00,,,0.00,0,WeatherHawk,2015-01-27 02:55:00,
2015-01-26 19:00:00,56.5,45.3,29.67,SW,219,5.0,-999.0,66,0.00,,,0.00,0,WeatherHawk,2015-01-27 03:00:00,
2015-01-26 19:05:00,56.5,45.3,29.67,SSW,203,2.0,-999.0,66,0.00,,,0.00,0,WeatherHawk,2015-01-27 03:05:00,
2015-01-26 19:10:00,56.3,45.5,29.67,SSW,207,6.0,-999.0,67,0.00,,,0.00,0,WeatherHawk,2015-01-27 03:10:00,
2015-01-26 19:15:00,56.3,45.5,29.67,SW,226,4.0,-999.0,67,0.00,,,0.00,0,WeatherHawk,2015-01-27 03:15:00,
2015-01-26 19:20:00,56.1,45.3,29.67,SSW,203,4.0,-999.0,67,0.00,,,0.00,0,WeatherHawk,2015-01-27 03:20:00,
2015-01-26 19:25:00,56.1,45.3,29.67,SSW,194,4.0,-999.0,67,0.00,,,0.00,0,WeatherHawk,2015-01-27 03:25:00,
2015-01-26 19:30:00,55.9,45.5,29.67,South,188,4.0,-999.0,68,0.00,,,0.00,0,WeatherHawk,2015-01-27 03:30:00,
2015-01-26 19:35:00,55.9,45.5,29.67,South,184,5.0,-999.0,68,0.00,,,0.00,1,WeatherHawk,2015-01-27 03:35:00,
2015-01-26 19:40:00,55.8,45.4,29.68,SSW,201,4.0,-999.0,68,0.00,,,0.00,0,WeatherHawk,2015-01-27 03:40:00,
2015-01-26 19:45:00,55.6,45.2,29.68,SSW,195,6.0,-999.0,68,0.00,,,0.00,0,WeatherHawk,2015-01-27 03:45:00,
2015-01-26 19:50:00,55.6,45.6,29.68,SSW,194,5.0,-999.0,69,0.00,,,0.00,0,WeatherHawk,2015-01-27 03:50:00,
2015-01-26 19:55:00,55.4,45.4,29.68,SSW,200,4.0,-999.0,69,0.00,,,0.00,0,WeatherHawk,2015-01-27 03:55:00,
2015-01-26 20:00:00,55.2,45.2,29.68,South,176,6.0,-999.0,69,0.00,,,0.00,0,WeatherHawk,2015-01-27 04:00:00,
2015-01-26 20:05:00,55.2,45.2,29.68,South,183,7.0,-999.0,69,0.00,,,0.00,1,WeatherHawk,2015-01-27 04:05:00,